Location: Oberstdorf
(47.4188°N, 10.2969°E)
Time: 03:03:38
(UTC+01:00)

ISS - Pass Details

Date: 14 November 2017
Orbit: 402 x 407 km, 51.6° (Epoch: 20 November)

Event Time Altitude Azimuth Distance (km) Brightness Sun altitude
Exits shadow 05:45:25 45° 279° (W) 563 -3.6 -16.3°
Maximum altitude 05:46:16 72° 207° (SSW) 426 -3.9 -16.2°
Drops below altitude 10° 05:49:31 10° 123° (ESE) 1,451 0.1 -15.6°
Sets 05:51:35 0° 122° (ESE) 2,308 1.4 -15.3°
